Regional Weather Roundup
Issued by NWS

Home | Current Version | Previous Version | Graphics & Text | Print | Product List | Glossary On
Versions: 1 2 3 4 5 6 7 8 9 10 11 12 13 14 15 16 17 18 19 20 21 22 23 24 25 26 27 28 29 30 31 32 33 34 35 36 37 38 39 40 41 42 43 44 45 46 47 48 49 50
000
ASUS45 KCYS 210910
RWRWY

WYOMING REGIONAL WEATHER ROUNDUP
NATIONAL WEATHER SERVICE CHEYENNE WY
300 AM MDT TUE APR 21 2015

NOTE:  "FAIR" INDICATES FEW OR NO CLOUDS BELOW 12,000 FEET
WITH NO SIGNIFICANT WEATHER AND/OR OBSTRUCTIONS TO VISIBILITY.

WYZ001-211000-
YELLOWSTONE NATIONAL PARK

CITY           SKY/WX    TMP DP  RH WIND       PRES   REMARKS
LK YELLOWSTONE   N/A     25  20  81 NW5       29.99F WCI  19
W YELLOWSTONE  NOT AVBL

$$
WYZ002>013-054>058-071-098>099-211000-
NORTHERN WYOMING

CITY           SKY/WX    TMP DP  RH WIND       PRES   REMARKS
JACKSON        FAIR      30  27  86 NE5       29.95S WCI  25
CODY           FAIR      39  28  65 SE5       29.88S
GREYBULL       MOCLDY    38  20  48 CALM      29.87S
WORLAND        FAIR      37  20  50 SE9       29.87F WCI  30
SHERIDAN       CLOUDY    34  27  75 CALM      29.84F
BUFFALO        MOCLDY    43  21  41 S6        29.86F
GILLETTE       FAIR      39  19  44 S16G22    29.85F WCI  30
HULETT         PTSUNNY   34  19  55 SW10      29.84F WCI  26
NEWCASTLE      FAIR      30  23  74 SE7       29.90S WCI  23

$$
WYZ014>020-022>026-101>103-211000-
CENTRAL WYOMING

CITY           SKY/WX    TMP DP  RH WIND       PRES   REMARKS
BIG PINEY      FAIR      27  16  63 E8        29.98S WCI  19
PINEDALE       PTSUNNY   25  19  80 W5        29.99S WCI  19
DUBOIS         FAIR      30  19  64 NW5       29.96S WCI  25
LANDER         FAIR      39  23  52 W9        29.90F WCI  33
RIVERTON       FAIR      35  26  69 NW10      29.92F WCI  27
CASPER         FAIR      30  23  75 W9        29.91F WCI  22
DOUGLAS        FAIR      29  24  82 CALM      29.91F

$$
WYZ021-027>030-104>119-211000-
SOUTHERN WYOMING

CITY           SKY/WX    TMP DP  RH WIND       PRES   REMARKS
EVANSTON       FAIR      38  22  52 SE7       29.98F WCI  33
KEMMERER       FAIR      34  21  60 CALM      29.99F
FORT BRIDGER   SUNNY     43  23  45 W8        30.00F
ROCK SPRINGS   FAIR      35  20  54 CALM      29.96F
DIXON          FAIR      31  27  86 CALM      29.99S
RAWLINS        FAIR      28  22  78 CALM      29.95F
SARATOGA       FAIR      28  27  93 S3        29.97S
LARAMIE        CLOUDY    27  22  81 S5        29.95F WCI  22
CHEYENNE       MOCLDY    34  23  64 W7        29.93F WCI  28
TORRINGTON     FAIR      34  23  64 W3        29.91S
PINE BLUFFS    FAIR      30  27  86 W5        29.94F WCI  25

$$


USA.gov is the U.S. government's official web portal to all federal, state and local government web resources and services.